Weather History for Truckee-Tahoe, CA

Change the Weather History Date:

Monday, February 18, 2013

  Actual Average Record
Temperature  
Mean Temperature 30 °F -  
Max Temperature 42 °F 43 °F 61 °F (1950)
Min Temperature 17 °F 17 °F -5 °F (1956)
Degree Days  
Heating Degree Days 36    
Moisture  
Dew Point 19 °F    
Average Humidity 71    
Maximum Humidity 100    
Minimum Humidity 34    
Precipitation  
Precipitation 0.00 in - - ()
Sea Level Pressure  
Sea Level Pressure 29.92 in    
Wind  
Wind Speed 4 mph (SSW)    
Max Wind Speed 18 mph    
Max Gust Speed 25 mph    
Visibility 10 miles    
Events      
Averages and records for this station are not official NWS values.
T = Trace of Precipitation, MM = Missing Value Source: NWS Daily Summary

Daily Weather History Graph

Daily Weather History Graph

Search for Another Location

Airport:

Trip Planner

Search our weather history database for the weather conditions in past years. The results will help you decide how hot, cold, wet, or windy it might be!

Date:

Astronomy

Feb. 18, 2013 Rise Set
Actual Time 6:48 AM PST 5:41 PM PST
Civil Twilight 6:20 AM PST 6:08 PM PST
Nautical Twilight 5:49 AM PST 6:39 PM PST
Astronomical Twilight 5:18 AM PST 7:11 PM PST
Moon 11:31 AM PST (2/18) 1:31 AM PST (2/18)
Length of Visible Light 11h 47m
Length of Day
10h 53m
First Quarter, 59% of the Moon is Illuminated
Feb 18
First Quarter
Feb 25
Full
Mar 4
Last Quarter
Mar 11
New
Mar 19
First Quarter

Hourly Weather History & Observations

Time (PST) Temp. Windchill Dew Point Humidity Pressure Visibility Wind Dir Wind Speed Gust Speed Precip Events Conditions
12:15 AM 23.0 °F - 19.4 °F 86% 30.05 in 10.0 mi Calm Calm - N/A   Clear
12:35 AM 23.0 °F - 19.4 °F 86% 30.04 in 10.0 mi Calm Calm - N/A   Clear
12:55 AM 21.2 °F - 19.4 °F 93% 30.04 in 10.0 mi Calm Calm - N/A   Clear
1:15 AM 23.0 °F - 19.4 °F 86% 30.04 in 10.0 mi Calm Calm - N/A   Clear
1:35 AM 19.4 °F 14.3 °F 19.4 °F 100% 30.04 in 10.0 mi SW 3.5 mph - N/A   Clear
1:55 AM 17.6 °F - 15.8 °F 93% 30.04 in 10.0 mi Calm Calm - N/A   Clear
2:15 AM 21.2 °F - 19.4 °F 93% 30.04 in 10.0 mi Calm Calm - N/A   Clear
2:35 AM 19.4 °F - 17.6 °F 93% 30.03 in 10.0 mi Calm Calm - N/A   Clear
2:55 AM 19.4 °F - 17.6 °F 93% 30.03 in 10.0 mi Calm Calm - N/A   Clear
3:15 AM 17.6 °F - 15.8 °F 93% 30.02 in 3.0 mi Calm Calm - N/A   Clear
3:35 AM 17.6 °F - 17.6 °F 100% 30.02 in 10.0 mi Calm Calm - N/A   Clear
3:55 AM 17.6 °F - 17.6 °F 100% 30.01 in 10.0 mi Calm Calm - N/A   Clear
4:15 AM 17.6 °F - 17.6 °F 100% 30.02 in 10.0 mi Calm Calm - N/A   Clear
4:35 AM 17.6 °F - 17.6 °F 100% 30.01 in 10.0 mi Calm Calm - N/A   Clear
4:55 AM 17.6 °F - 15.8 °F 93% 30.01 in 10.0 mi Calm Calm - N/A   Clear
5:15 AM 17.6 °F - 17.6 °F 100% 30.01 in 10.0 mi Calm Calm - N/A   Clear
5:35 AM 17.6 °F - 17.6 °F 100% 30.01 in 10.0 mi Calm Calm - N/A   Clear
6:45 AM 17.6 °F - 15.8 °F 93% 30.00 in 10.0 mi Calm Calm - N/A   Mostly Cloudy
7:45 AM 19.4 °F - 17.6 °F 93% 30.00 in 10.0 mi Calm Calm - N/A   Mostly Cloudy
8:45 AM 23.0 °F - 19.4 °F 86% 30.00 in 10.0 mi Calm Calm - N/A   Mostly Cloudy
9:45 AM 26.6 °F - 24.8 °F 93% 29.99 in 10.0 mi Calm Calm - N/A   Mostly Cloudy
10:45 AM 30.2 °F - 24.8 °F 80% 29.97 in 10.0 mi Calm Calm - N/A   Mostly Cloudy
11:45 AM 37.4 °F 32.8 °F 19.4 °F 48% 29.95 in 10.0 mi SW 5.8 mph - N/A   Mostly Cloudy
2:45 PM 42.8 °F 35.4 °F 15.8 °F 34% 29.88 in 10.0 mi SSW 15.0 mph 24.2 mph N/A   Mostly Cloudy
3:55 PM 41.0 °F 33.9 °F 17.6 °F 39% 29.87 in 10.0 mi SSW 12.7 mph 19.6 mph N/A   Mostly Cloudy
4:45 PM 39.2 °F 32.0 °F 23.0 °F 52% 29.86 in 10.0 mi SSW 11.5 mph 16.1 mph N/A   Mostly Cloudy
4:55 PM 39.2 °F 34.2 °F 23.0 °F 52% 29.85 in 10.0 mi SSW 6.9 mph - N/A   Clear
5:15 PM 37.4 °F 28.5 °F 21.2 °F 52% 29.85 in 10.0 mi SW 15.0 mph 19.6 mph N/A   Clear
5:35 PM 37.4 °F 28.9 °F 19.4 °F 48% 29.84 in 10.0 mi SSW 13.8 mph 20.7 mph N/A   Clear
5:55 PM 37.4 °F 31.4 °F 17.6 °F 45% 29.83 in 10.0 mi SSW 8.1 mph - N/A   Clear
6:15 PM 35.6 °F 28.6 °F 17.6 °F 48% 29.83 in 10.0 mi SSW 9.2 mph - N/A   Clear
6:35 PM 35.6 °F 28.6 °F 15.8 °F 44% 29.83 in 10.0 mi SSW 9.2 mph 18.4 mph N/A   Clear
6:55 PM 33.8 °F 27.0 °F 15.8 °F 48% 29.83 in 10.0 mi SW 8.1 mph - N/A   Clear
7:15 PM 35.6 °F 27.1 °F 17.6 °F 48% 29.83 in 10.0 mi SW 12.7 mph - N/A   Clear
7:35 PM 35.6 °F 25.5 °F 21.2 °F 56% 29.83 in 10.0 mi SSW 17.3 mph 20.7 mph N/A   Clear
7:55 PM 33.8 °F 24.3 °F 21.2 °F 60% 29.83 in 10.0 mi SW 13.8 mph 18.4 mph N/A   Clear
8:15 PM 33.8 °F 25.8 °F 21.2 °F 60% 29.83 in 10.0 mi SSW 10.4 mph 17.3 mph N/A   Clear
8:35 PM 33.8 °F 24.3 °F 21.2 °F 60% 29.83 in 10.0 mi SSW 13.8 mph - N/A   Clear
8:55 PM 33.8 °F 24.3 °F 21.2 °F 60% 29.82 in 10.0 mi SSW 13.8 mph 19.6 mph N/A   Clear
9:15 PM 33.8 °F 23.9 °F 19.4 °F 56% 29.82 in 10.0 mi South 15.0 mph - N/A   Clear
9:35 PM 32.0 °F 23.6 °F 19.4 °F 60% 29.83 in 10.0 mi SSW 10.4 mph 20.7 mph N/A   Partly Cloudy
9:55 PM 32.0 °F 20.5 °F 19.4 °F 60% 29.82 in 10.0 mi South 18.4 mph 25.3 mph N/A   Scattered Clouds
10:15 PM 32.0 °F 20.8 °F 19.4 °F 60% 29.81 in 10.0 mi South 17.3 mph 21.9 mph N/A   Clear
10:35 PM 32.0 °F 23.0 °F 15.8 °F 51% 29.81 in 10.0 mi SSW 11.5 mph 20.7 mph N/A   Clear
10:55 PM 32.0 °F 26.4 °F 17.6 °F 55% 29.81 in 10.0 mi SSW 5.8 mph 18.4 mph N/A   Clear
11:15 PM 32.0 °F 24.8 °F 19.4 °F 60% 29.81 in 10.0 mi WSW 8.1 mph - N/A   Partly Cloudy
11:35 PM 32.0 °F 21.2 °F 17.6 °F 55% 29.80 in 10.0 mi SSW 16.1 mph - N/A   Scattered Clouds
11:55 PM 32.0 °F 27.5 °F 17.6 °F 55% 29.81 in 10.0 mi West 4.6 mph - N/A   Mostly Cloudy